EB5ETD Weather Reports


time (UTC)temp
F
wind
direction
speed
knots
gust
knots
rain 1hr
in
rain 24hr
in
rain mn
in
humidity
%
barometer
mb
20260502202504 60 53 1.7 2.6 0.00 0.00 0.00 89 1024.8
20260502202003 60 74 1.7 2.6 0.00 0.00 0.00 89 1024.6
20260502201503 60 41 1.7 4.3 0.00 0.00 0.00 89 1024.7
20260502201004 60 77 0.9 1.7 0.00 0.00 0.00 89 1024.8
20260502200004 60 47 1.7 4.3 0.00 0.00 0.00 89 1024.5
20260502195503 60 47 0.9 6.1 0.00 0.00 0.00 89 1024.5
20260502194503 60 32 1.7 4.3 0.00 0.00 0.00 89 1024.3
20260502194004 60 43 1.7 2.6 0.00 0.00 0.00 89 1024.5
20260502193504 60 53 2.6 4.3 0.00 0.00 0.00 89 1024.4
20260502193004 60 65 0.9 7.0 0.00 0.00 0.00 89 1024.4
20260502192004 61 38 2.6 7.0 0.00 0.00 0.00 88 1024.4
20260502191503 61 57 0.9 2.6 0.00 0.00 0.00 88 1024.3
20260502190504 61 43 2.6 6.1 0.00 0.00 0.00 87 1024.5
20260502190004 61 32 2.6 6.1 0.00 0.00 0.00 87 1024.5
20260502185004 61 43 2.6 6.1 0.00 0.00 0.00 86 1024.2
20260502184503 61 39 4.3 7.8 0.00 0.00 0.00 86 1024.0
20260502184004 62 38 3.5 7.8 0.00 0.00 0.00 85 1024.2
20260502182004 63 49 1.7 4.3 0.00 0.00 0.00 83 1024.2
20260502181503 63 43 1.7 4.3 0.00 0.00 0.00 83 1024.1
20260502181003 63 54 1.7 2.6 0.00 0.00 0.00 82 1024.0
20260502180504 63 41 0.9 2.6 0.00 0.00 0.00 82 1024.1
20260502164004 65 42 4.3 6.1 0.00 0.00 0.00 79 1023.8
20260502163504 65 56 4.3 5.2 0.00 0.00 0.00 78 1023.7
20260502163004 65 61 2.6 4.3 0.00 0.00 0.00 77 1024.2
20260502162503 65 42 1.7 4.3 0.00 0.00 0.00 77 1024.4
20260502162004 65 58 1.7 5.2 0.00 0.00 0.00 78 1024.6
20260502161503 65 49 2.6 6.1 0.00 0.00 0.00 78 1024.4
20260502161003 65 56 2.6 6.1 0.00 0.00 0.00 78 1024.5
20260502160504 65 50 2.6 6.1 0.00 0.00 0.00 77 1024.5
20260502152004 66 46 4.3 6.1 0.00 0.00 0.00 73 1024.7
20260502151503 65 44 5.2 7.0 0.00 0.00 0.00 75 1024.4
20260502151004 66 46 4.3 7.0 0.00 0.00 0.00 76 1024.4
20260502150503 65 59 2.6 7.0 0.00 0.00 0.00 78 1024.9
20260502130504 66 38 4.3 5.2 0.00 0.00 0.00 75 1026.1
20260502123504 66 53 2.6 6.1 0.00 0.00 0.00 75 1026.2
20260502122004 67 36 2.6 6.1 0.00 0.00 0.00 74 1025.7
20260502121503 67 57 1.7 6.1 0.00 0.00 0.00 72 1026.0
20260502120504 66 37 0.0 2.6 0.00 0.00 0.00 72 1026.4
20260502115503 66 126 0.9 5.2 0.00 0.00 0.00 73 1026.5
20260502115004 66 23 3.5 5.2 0.00 0.00 0.00 73 1026.6
20260502114504 66 34 2.6 5.2 0.00 0.00 0.00 73 1026.6
20260502114003 66 46 3.5 7.8 0.00 0.00 0.00 74 1026.6
20260502113504 66 46 2.6 6.1 0.00 0.00 0.00 73 1026.8
20260502113003 66 50 2.6 7.8 0.00 0.00 0.00 74 1026.5
20260502112505 66 48 2.6 6.1 0.00 0.00 0.00 73 1026.7
20260502112004 66 47 3.5 6.1 0.00 0.00 0.00 72 1026.7
20260502111004 66 45 4.3 6.1 0.00 0.00 0.00 72 1026.8
20260502110504 66 47 2.6 5.2 0.00 0.00 0.00 72 1026.8
20260502110004 66 28 2.6 6.1 0.00 0.00 0.00 72 1027.0
20260502105503 65 325 0.9 5.2 0.00 0.00 0.00 73 1027.3
20260502104503 65 47 3.5 6.1 0.00 0.00 0.00 74 1027.3
20260502104005 65 38 2.6 4.3 0.00 0.00 0.00 74 1027.3
20260502103504 66 41 1.7 4.3 0.00 0.00 0.00 74 1027.3
20260502103003 65 23 1.7 5.2 0.00 0.00 0.00 76 1027.5
20260502102503 65 38 3.5 6.1 0.00 0.00 0.00 75 1027.5
20260502102004 64 338 2.6 5.2 0.00 0.00 0.00 77 1027.7
20260502101503 65 56 1.7 4.3 0.00 0.00 0.00 76 1027.5
20260502101004 64 43 1.7 4.3 0.00 0.00 0.00 78 1027.6
20260502100504 64 47 0.9 4.3 0.00 0.00 0.00 77 1027.8
20260502091504 62 46 2.6 5.2 0.00 0.00 0.00 81 1028.4
20260502090504 62 64 1.7 5.2 0.00 0.00 0.00 81 1028.5
20260502071504 60 67 0.9 2.6 0.00 0.00 0.00 84 1029.0
20260502070504 59 44 0.0 1.7 0.00 0.00 0.00 84 1029.0
20260502070004 59 41 0.9 1.7 0.00 0.00 0.00 84 1029.1
20260502065504 59 33 0.9 2.6 0.00 0.00 0.00 84 1029.0
20260502065003 59 31 0.0 1.7 0.00 0.00 0.00 85 1029.0
20260502064504 59 31 0.0 1.7 0.00 0.00 0.00 86 1028.9
20260502063504 58 31 0.0 0.9 0.00 0.00 0.00 86 1029.1
20260502063004 58 31 0.9 1.7 0.00 0.00 0.00 86 1029.1
20260502062503 58 31 0.0 1.7 0.00 0.00 0.00 87 1029.2
20260502062004 58 31 0.9 0.9 0.00 0.00 0.00 87 1029.2
20260502061003 58 31 0.0 1.7 0.00 0.00 0.00 87 1029.1
20260502060504 58 31 0.0 0.9 0.00 0.01 0.00 88 1029.3
20260502060004 57 31 0.0 0.9 0.00 0.03 0.00 88 1029.4
20260502055504 57 31 0.0 0.9 0.00 0.04 0.00 88 1029.1
20260502055003 57 32 0.9 1.7 0.00 0.05 0.00 88 1029.4
20260502054504 57 34 0.9 1.7 0.00 0.06 0.00 88 1029.3
20260502054004 57 36 0.9 0.9 0.00 0.06 0.00 89 1029.3
20260502053505 57 37 0.0 0.9 0.00 0.06 0.00 89 1029.3
20260502053003 57 37 0.0 0.0 0.00 0.06 0.00 89 1029.3
20260502052503 57 37 0.0 0.0 0.00 0.07 0.00 89 1029.3
20260502052004 57 38 0.0 0.9 0.00 0.07 0.00 89 1029.1
20260502051504 57 38 0.0 0.9 0.00 0.08 0.00 88 1028.9
20260502051004 57 38 0.9 1.7 0.00 0.08 0.00 88 1028.9
20260502050004 57 151 0.0 0.9 0.00 0.08 0.00 87 1028.9
20260502045504 57 163 0.9 0.9 0.00 0.08 0.00 87 1029.0
20260502045004 57 217 0.9 1.7 0.00 0.08 0.00 88 1028.8
20260502044504 57 229 0.9 1.7 0.00 0.08 0.00 88 1028.8
20260502043004 57 187 0.9 1.7 0.00 0.08 0.00 87 1028.8
20260502042004 58 214 0.9 1.7 0.00 0.08 0.00 86 1028.9
20260502041504 57 211 0.9 1.7 0.00 0.08 0.00 86 1029.0
20260502041004 57 224 0.0 1.7 0.00 0.08 0.00 86 1029.2
20260502040504 57 201 0.9 2.6 0.00 0.08 0.00 87 1029.1
20260502040004 56 274 0.9 1.7 0.00 0.08 0.00 88 1029.4
20260502035504 56 290 0.9 0.9 0.00 0.08 0.00 90 1029.6
20260502035003 56 294 0.0 0.9 0.00 0.08 0.00 91 1029.7
20260502034504 56 302 0.9 1.7 0.00 0.08 0.00 92 1029.8
20260502034004 56 333 0.0 0.9 0.00 0.08 0.00 94 1029.7
20260502033504 56 41 0.0 0.9 0.00 0.08 0.00 94 1029.8
20260502033003 57 43 0.0 0.9 0.00 0.08 0.00 95 1029.8
20260502031003 57 77 0.9 1.7 0.00 0.08 0.00 95 1029.7
20260502030504 57 78 0.9 0.9 0.00 0.08 0.00 95 1029.7
20260502030004 57 78 0.0 0.9 0.00 0.08 0.00 95 1029.5
20260502025004 57 78 0.9 0.9 0.00 0.08 0.00 95 1029.5
20260502024504 57 78 0.9 1.7 0.00 0.08 0.00 95 1029.4
20260502024005 57 78 0.9 1.7 0.00 0.08 0.00 95 1029.3
20260502023503 57 78 0.9 1.7 0.00 0.08 0.00 95 1029.3
20260502023004 57 79 0.9 1.7 0.00 0.08 0.00 95 1029.1
20260502022504 57 79 0.9 1.7 0.00 0.09 0.00 95 1029.4
20260502022004 57 80 0.9 1.7 0.00 0.09 0.00 95 1029.2
20260502021504 57 79 1.7 1.7 0.00 0.10 0.00 95 1029.2
20260502021004 57 77 0.9 1.7 0.00 0.10 0.00 95 1029.3
20260502020504 57 77 0.9 1.7 0.00 0.10 0.00 95 1029.6
20260502020004 57 77 0.0 0.0 0.00 0.10 0.00 95 1029.7
20260502015503 57 77 0.0 0.9 0.00 0.10 0.00 95 1029.7
20260502015003 57 77 0.9 1.7 0.00 0.10 0.00 94 1029.7
20260502014504 57 77 0.9 1.7 0.00 0.10 0.00 94 1029.7
20260502014004 57 77 0.0 0.9 0.00 0.10 0.00 94 1029.6
20260502013503 57 77 0.0 0.9 0.00 0.10 0.00 94 1029.8
20260502013004 57 77 0.0 0.9 0.00 0.10 0.00 94 1029.9
20260502012504 57 77 0.0 0.9 0.00 0.10 0.00 94 1029.8
20260502012004 57 77 0.9 0.9 0.00 0.10 0.00 94 1029.8
20260502011503 57 77 0.0 0.9 0.00 0.10 0.00 94 1029.7
20260502011004 57 77 0.9 0.9 0.00 0.10 0.00 94 1030.0
20260502010504 57 77 0.9 1.7 0.00 0.10 0.00 93 1030.1
20260502005504 57 76 0.0 1.7 0.00 0.10 0.00 93 1030.3
20260502004503 57 76 0.9 1.7 0.00 0.10 0.00 93 1030.3
20260502003504 58 77 0.0 1.7 0.00 0.13 0.00 92 1030.2
20260502003003 58 70 0.9 2.6 0.00 0.16 0.00 92 1030.1
20260502002504 58 66 0.0 0.9 0.00 0.18 0.00 92 1030.2
20260502002004 58 65 0.9 1.7 0.00 0.18 0.00 92 1030.3
20260502001503 58 65 0.0 1.7 0.00 0.18 0.00 91 1030.4
20260502001005 58 65 0.0 0.9 0.00 0.18 0.00 91 1030.3
20260502000004 58 58 0.9 1.7 0.00 0.18 0.00 91 1030.6
20260501235003 58 54 0.9 0.9 0.00 0.18 0.00 91 1030.6
20260501234504 58 54 0.0 1.7 0.00 0.18 0.00 91 1030.5
20260501233503 58 54 0.0 0.0 0.00 0.18 0.00 91 1030.6
20260501233003 58 54 0.0 0.9 0.00 0.18 0.00 91 1030.8
20260501232504 58 54 0.9 1.7 0.00 0.18 0.00 90 1030.7
20260501232004 58 52 0.9 1.7 0.00 0.18 0.00 90 1030.6
20260501231504 58 52 0.9 1.7 0.00 0.18 0.00 90 1030.7
20260501231004 58 52 0.9 1.7 0.00 0.18 0.00 90 1030.7
20260501230504 58 52 0.9 1.7 0.00 0.18 0.00 90 1030.7
20260501230004 58 52 0.9 1.7 0.00 0.18 0.00 90 1030.9
20260501225503 58 52 0.9 1.7 0.00 0.18 0.00 90 1030.8
20260501225004 58 52 0.9 1.7 0.00 0.18 0.00 90 1030.8
20260501223503 58 52 0.0 0.0 0.00 0.18 0.00 90 1030.9
20260501223004 58 52 0.0 0.9 0.00 0.18 0.00 90 1031.1
20260501222503 58 52 0.9 0.9 0.00 0.18 0.00 90 1031.0
20260501222004 58 52 0.9 0.9 0.00 0.18 0.00 90 1030.9
20260501221504 58 51 0.9 1.7 0.00 0.18 0.00 90 1030.9
20260501221004 58 52 0.9 0.9 0.00 0.18 0.00 90 1030.8
20260501220504 58 49 0.9 1.7 0.00 0.18 0.00 89 1030.9
20260501220004 58 38 0.9 1.7 0.00 0.18 0.00 89 1030.9
20260501215504 58 56 0.9 1.7 0.00 0.18 0.18 89 1031.0
20260501214505 58 75 0.0 0.9 0.00 0.18 0.18 89 1031.3
20260501214004 58 57 0.9 2.6 0.00 0.18 0.18 89 1031.1
20260501213504 58 25 0.9 1.7 0.00 0.18 0.18 90 1031.1
20260501213004 58 70 0.9 2.6 0.00 0.18 0.18 90 1031.1
20260501212504 58 63 0.9 1.7 0.00 0.18 0.18 90 1031.2
20260501211504 58 55 0.9 2.6 0.00 0.18 0.18 89 1031.3
20260501211004 58 45 0.9 1.7 0.00 0.18 0.18 89 1031.2
20260501210004 58 51 1.7 2.6 0.00 0.18 0.18 89 1031.2
20260501205504 58 42 2.6 4.3 0.00 0.18 0.18 89 1031.2
20260501205004 58 35 2.6 4.3 0.00 0.18 0.18 89 1031.4
20260501204503 58 47 0.9 5.2 0.00 0.18 0.18 89 1031.3
20260501204004 58 42 3.5 6.1 0.00 0.18 0.18 89 1031.1
20260501203504 58 47 4.3 7.8 0.00 0.18 0.18 90 1031.1
20260501203005 59 40 2.6 5.2 0.00 0.18 0.18 90 1031.1